Year,Month,Day,Hour,Minute,Value (Times are PST for windgust in km/hr)
2018,04,11,00,01,8.10
2018,04,11,00,04,3.20
2018,04,11,00,09,8.10
2018,04,11,00,10,1.60
2018,04,11,00,13,1.60
2018,04,11,00,14,3.20
2018,04,11,00,15,6.40
2018,04,11,00,19,3.20
2018,04,11,00,20,3.20
2018,04,11,00,21,11.30
2018,04,11,00,22,6.40
2018,04,11,00,23,4.80
2018,04,11,00,24,1.60
2018,04,11,00,25,12.90
2018,04,11,00,26,11.30
2018,04,11,00,27,14.50
2018,04,11,00,28,11.30
2018,04,11,00,29,11.30
2018,04,11,00,30,11.30
2018,04,11,00,31,14.50
2018,04,11,00,32,3.20
2018,04,11,00,33,11.30
2018,04,11,00,34,12.90
2018,04,11,00,35,12.90
2018,04,11,00,36,14.50
2018,04,11,00,37,17.70
2018,04,11,00,38,9.60
2018,04,11,00,39,14.50
2018,04,11,00,40,17.70
2018,04,11,00,41,16.10
2018,04,11,00,42,17.70
2018,04,11,00,43,12.90
2018,04,11,00,44,14.50
2018,04,11,00,45,17.70
2018,04,11,00,46,19.30
2018,04,11,00,47,16.10
2018,04,11,00,48,16.10
2018,04,11,00,49,12.90
2018,04,11,00,50,17.70
2018,04,11,00,51,22.50
2018,04,11,00,52,20.90
2018,04,11,00,53,17.70
2018,04,11,00,54,12.90
2018,04,11,00,55,17.70
2018,04,11,00,56,12.90
2018,04,11,00,57,17.70
2018,04,11,00,58,19.30
2018,04,11,00,59,16.10
2018,04,11,01,00,25.70
2018,04,11,01,01,22.50
2018,04,11,01,02,22.50
2018,04,11,01,03,19.30
2018,04,11,01,04,14.50
2018,04,11,01,05,20.90
2018,04,11,01,06,20.90
2018,04,11,01,07,17.70
2018,04,11,01,08,22.50
2018,04,11,01,09,14.50
2018,04,11,01,10,14.50
2018,04,11,01,11,17.70
2018,04,11,01,12,12.90
2018,04,11,01,13,16.10
2018,04,11,01,14,14.50
2018,04,11,01,15,19.30
2018,04,11,01,16,22.50
2018,04,11,01,17,16.10
2018,04,11,01,18,17.70
2018,04,11,01,19,17.70
2018,04,11,01,20,12.90
2018,04,11,01,21,12.90
2018,04,11,01,22,20.90
2018,04,11,01,23,14.50
2018,04,11,01,24,14.50
2018,04,11,01,25,12.90
2018,04,11,01,26,9.60
2018,04,11,01,27,11.30
2018,04,11,01,28,14.50
2018,04,11,01,29,16.10
2018,04,11,01,30,17.70
2018,04,11,01,31,17.70
2018,04,11,01,32,12.90
2018,04,11,01,33,11.30
2018,04,11,01,34,12.90
2018,04,11,01,35,12.90
2018,04,11,01,36,20.90
2018,04,11,01,37,14.50
2018,04,11,01,38,17.70
2018,04,11,01,39,14.50
2018,04,11,01,40,16.10
2018,04,11,01,41,17.70
2018,04,11,01,42,19.30
2018,04,11,01,43,17.70
2018,04,11,01,44,17.70
2018,04,11,01,45,19.30
2018,04,11,01,46,17.70
2018,04,11,01,47,16.10
2018,04,11,01,48,16.10
2018,04,11,01,49,16.10
2018,04,11,01,50,12.90
2018,04,11,01,51,20.90
2018,04,11,01,52,14.50
2018,04,11,01,53,14.50
2018,04,11,01,54,17.70
2018,04,11,01,55,17.70
2018,04,11,01,56,17.70
2018,04,11,01,57,11.30
2018,04,11,01,58,11.30
2018,04,11,01,59,16.10
2018,04,11,02,00,11.30
2018,04,11,02,01,19.30
2018,04,11,02,02,12.90
2018,04,11,02,03,16.10
2018,04,11,02,04,11.30
2018,04,11,02,05,16.10
2018,04,11,02,06,14.50
2018,04,11,02,07,12.90
2018,04,11,02,08,12.90
2018,04,11,02,09,14.50
2018,04,11,02,10,20.90
2018,04,11,02,11,22.50
2018,04,11,02,12,20.90
2018,04,11,02,13,14.50
2018,04,11,02,14,16.10
2018,04,11,02,15,19.30
2018,04,11,02,16,19.30
2018,04,11,02,17,17.70
2018,04,11,02,18,11.30
2018,04,11,02,19,20.90
2018,04,11,02,20,20.90
2018,04,11,02,21,16.10
2018,04,11,02,22,14.50
2018,04,11,02,23,16.10
2018,04,11,02,24,12.90
2018,04,11,02,25,22.50
2018,04,11,02,26,24.20
2018,04,11,02,27,14.50
2018,04,11,02,28,17.70
2018,04,11,02,29,24.20
2018,04,11,02,30,19.30
2018,04,11,02,31,16.10
2018,04,11,02,32,19.30
2018,04,11,02,33,14.50
2018,04,11,02,34,17.70
2018,04,11,02,35,17.70
2018,04,11,02,36,12.90
2018,04,11,02,37,16.10
2018,04,11,02,38,16.10
2018,04,11,02,39,16.10
2018,04,11,02,40,17.70
2018,04,11,02,41,12.90
2018,04,11,02,42,16.10
2018,04,11,02,43,12.90
2018,04,11,02,44,17.70
2018,04,11,02,45,14.50
2018,04,11,02,46,16.10
2018,04,11,02,47,14.50
2018,04,11,02,48,14.50
2018,04,11,02,49,12.90
2018,04,11,02,50,19.30
2018,04,11,02,51,19.30
2018,04,11,02,52,17.70
2018,04,11,02,53,14.50
2018,04,11,02,54,17.70
2018,04,11,02,55,16.10
2018,04,11,02,56,22.50
2018,04,11,02,57,19.30
2018,04,11,02,58,16.10
2018,04,11,02,59,19.30
2018,04,11,03,00,16.10
2018,04,11,03,01,14.50
2018,04,11,03,02,17.70
2018,04,11,03,03,16.10
2018,04,11,03,04,12.90
2018,04,11,03,05,19.30
2018,04,11,03,06,17.70
2018,04,11,03,07,16.10
2018,04,11,03,08,16.10
2018,04,11,03,09,17.70
2018,04,11,03,10,17.70
2018,04,11,03,11,12.90
2018,04,11,03,12,16.10
2018,04,11,03,13,16.10
2018,04,11,03,14,12.90
2018,04,11,03,15,12.90
2018,04,11,03,16,16.10
2018,04,11,03,17,17.70
2018,04,11,03,18,17.70
2018,04,11,03,19,16.10
2018,04,11,03,20,6.40
2018,04,11,03,21,12.90
2018,04,11,03,22,19.30
2018,04,11,03,23,16.10
2018,04,11,03,24,14.50
2018,04,11,03,25,14.50
2018,04,11,03,26,17.70
2018,04,11,03,27,8.10
2018,04,11,03,28,20.90
2018,04,11,03,29,11.30
2018,04,11,03,30,12.90
2018,04,11,03,31,12.90
2018,04,11,03,32,17.70
2018,04,11,03,33,16.10
2018,04,11,03,34,16.10
2018,04,11,03,35,20.90
2018,04,11,03,36,17.70
2018,04,11,03,37,14.50
2018,04,11,03,38,12.90
2018,04,11,03,39,17.70
2018,04,11,03,40,17.70
2018,04,11,03,41,20.90
2018,04,11,03,42,14.50
2018,04,11,03,43,19.30
2018,04,11,03,44,16.10
2018,04,11,03,45,11.30
2018,04,11,03,46,14.50
2018,04,11,03,47,22.50
2018,04,11,03,48,20.90
2018,04,11,03,49,20.90
2018,04,11,03,50,16.10
2018,04,11,03,51,19.30
2018,04,11,03,52,24.20
2018,04,11,03,53,25.70
2018,04,11,03,54,17.70
2018,04,11,03,55,16.10
2018,04,11,03,56,16.10
2018,04,11,03,57,17.70
2018,04,11,03,58,12.90
2018,04,11,03,59,20.90
2018,04,11,04,00,12.90
2018,04,11,04,01,12.90
2018,04,11,04,02,14.50
2018,04,11,04,03,16.10
2018,04,11,04,04,19.30
2018,04,11,04,05,11.30
2018,04,11,04,06,14.50
2018,04,11,04,07,12.90
2018,04,11,04,08,14.50
2018,04,11,04,09,16.10
2018,04,11,04,10,14.50
2018,04,11,04,11,20.90
2018,04,11,04,12,14.50
2018,04,11,04,13,12.90
2018,04,11,04,14,19.30
2018,04,11,04,15,17.70
2018,04,11,04,16,14.50
2018,04,11,04,17,19.30
2018,04,11,04,18,22.50
2018,04,11,04,19,16.10
2018,04,11,04,20,17.70
2018,04,11,04,21,24.20
2018,04,11,04,22,17.70
2018,04,11,04,23,17.70
2018,04,11,04,24,11.30
2018,04,11,04,25,17.70
2018,04,11,04,26,22.50
2018,04,11,04,27,16.10
2018,04,11,04,28,30.60
2018,04,11,04,29,24.20
2018,04,11,04,30,16.10
2018,04,11,04,31,22.50
2018,04,11,04,32,22.50
2018,04,11,04,33,29.00
2018,04,11,04,34,20.90
2018,04,11,04,35,22.50
2018,04,11,04,36,20.90
2018,04,11,04,37,24.20
2018,04,11,04,38,19.30
2018,04,11,04,39,19.30
2018,04,11,04,40,22.50
2018,04,11,04,41,22.50
2018,04,11,04,42,24.20
2018,04,11,04,43,25.70
2018,04,11,04,44,25.70
2018,04,11,04,45,32.20
2018,04,11,04,46,20.90
2018,04,11,04,47,19.30
2018,04,11,04,48,16.10
2018,04,11,04,49,20.90
2018,04,11,04,50,17.70
2018,04,11,04,51,19.30
2018,04,11,04,52,19.30
2018,04,11,04,53,19.30
2018,04,11,04,54,16.10
2018,04,11,04,55,14.50
2018,04,11,04,56,16.10
2018,04,11,04,57,14.50
2018,04,11,04,58,12.90
2018,04,11,04,59,12.90
2018,04,11,05,00,14.50
2018,04,11,05,01,12.90
2018,04,11,05,02,17.70
2018,04,11,05,03,16.10
2018,04,11,05,04,16.10
2018,04,11,05,05,16.10
2018,04,11,05,06,16.10
2018,04,11,05,07,17.70
2018,04,11,05,08,17.70
2018,04,11,05,09,11.30
2018,04,11,05,10,9.60
2018,04,11,05,11,9.60
2018,04,11,05,12,6.40
2018,04,11,05,13,6.40
2018,04,11,05,14,11.30
2018,04,11,05,15,16.10
2018,04,11,05,16,11.30
2018,04,11,05,17,12.90
2018,04,11,05,18,11.30
2018,04,11,05,19,11.30
2018,04,11,05,20,6.40
2018,04,11,05,21,6.40
2018,04,11,05,22,11.30
2018,04,11,05,23,11.30
2018,04,11,05,24,11.30
2018,04,11,05,25,11.30
2018,04,11,05,26,17.70
2018,04,11,05,27,20.90
2018,04,11,05,28,14.50
2018,04,11,05,29,12.90
2018,04,11,05,30,12.90
2018,04,11,05,31,16.10
2018,04,11,05,32,16.10
2018,04,11,05,33,14.50
2018,04,11,05,34,14.50
2018,04,11,05,35,16.10
2018,04,11,05,36,14.50
2018,04,11,05,37,19.30
2018,04,11,05,38,19.30
2018,04,11,05,39,14.50
2018,04,11,05,40,19.30
2018,04,11,05,41,20.90
2018,04,11,05,42,20.90
2018,04,11,05,43,14.50
2018,04,11,05,44,24.20
2018,04,11,05,45,22.50
2018,04,11,05,46,25.70
2018,04,11,05,47,27.40
2018,04,11,05,48,25.70
2018,04,11,05,49,30.60
2018,04,11,05,50,40.20
2018,04,11,05,51,35.40
2018,04,11,05,52,32.20
2018,04,11,05,53,33.80
2018,04,11,05,54,38.60
2018,04,11,05,55,25.70
2018,04,11,05,56,22.50
2018,04,11,05,57,27.40
2018,04,11,05,58,25.70
2018,04,11,05,59,22.50
2018,04,11,06,00,16.10
2018,04,11,06,01,20.90
2018,04,11,06,02,16.10
2018,04,11,06,03,24.20
2018,04,11,06,04,16.10
2018,04,11,06,05,19.30
2018,04,11,06,06,22.50
2018,04,11,06,07,27.40
2018,04,11,06,08,25.70
2018,04,11,06,09,20.90
2018,04,11,06,10,17.70
2018,04,11,06,11,16.10
2018,04,11,06,12,29.00
2018,04,11,06,13,30.60
2018,04,11,06,14,45.10
2018,04,11,06,15,41.80
2018,04,11,06,16,29.00
2018,04,11,06,17,43.50
2018,04,11,06,18,40.20
2018,04,11,06,19,33.80
2018,04,11,06,20,29.00
2018,04,11,06,21,38.60
2018,04,11,06,22,30.60
2018,04,11,06,23,33.80
2018,04,11,06,24,30.60
2018,04,11,06,25,37.00
2018,04,11,06,26,40.20
2018,04,11,06,27,41.80
2018,04,11,06,28,45.10
2018,04,11,06,29,32.20
2018,04,11,06,30,43.50
2018,04,11,06,31,35.40
2018,04,11,06,32,40.20
2018,04,11,06,33,33.80
2018,04,11,06,34,35.40
2018,04,11,06,35,35.40
2018,04,11,06,36,30.60
2018,04,11,06,37,30.60
2018,04,11,06,38,30.60
2018,04,11,06,39,35.40
2018,04,11,06,40,30.60
2018,04,11,06,41,32.20
2018,04,11,06,42,27.40
2018,04,11,06,43,33.80
2018,04,11,06,44,33.80
2018,04,11,06,45,33.80
2018,04,11,06,46,40.20
2018,04,11,06,47,33.80
2018,04,11,06,48,33.80
2018,04,11,06,49,41.80
2018,04,11,06,50,29.00
2018,04,11,06,51,41.80
2018,04,11,06,52,41.80
2018,04,11,06,53,38.60
2018,04,11,06,54,38.60
2018,04,11,06,55,43.50
2018,04,11,06,56,41.80
2018,04,11,06,57,37.00
2018,04,11,06,58,45.10
2018,04,11,06,59,37.00
2018,04,11,07,00,45.10
2018,04,11,07,01,51.50
2018,04,11,07,02,45.10
2018,04,11,07,03,37.00
2018,04,11,07,04,37.00
2018,04,11,07,05,38.60
2018,04,11,07,06,43.50
2018,04,11,07,07,38.60
2018,04,11,07,08,43.50
2018,04,11,07,09,48.30
2018,04,11,07,10,41.80
2018,04,11,07,11,40.20
2018,04,11,07,12,41.80
2018,04,11,07,13,45.10
2018,04,11,07,14,38.60
2018,04,11,07,15,41.80
2018,04,11,07,16,41.80
2018,04,11,07,17,45.10
2018,04,11,07,18,38.60
2018,04,11,07,19,49.90
2018,04,11,07,20,41.80
2018,04,11,07,21,41.80
2018,04,11,07,22,37.00
2018,04,11,07,23,41.80
2018,04,11,07,24,38.60
2018,04,11,07,25,30.60
2018,04,11,07,26,40.20
2018,04,11,07,27,43.50
2018,04,11,07,28,41.80
2018,04,11,07,29,30.60
2018,04,11,07,30,37.00
2018,04,11,07,31,41.80
2018,04,11,07,32,38.60
2018,04,11,07,33,33.80
2018,04,11,07,34,30.60
2018,04,11,07,35,29.00
2018,04,11,07,36,32.20
2018,04,11,07,37,32.20
2018,04,11,07,38,38.60
2018,04,11,07,39,32.20
2018,04,11,07,40,33.80
2018,04,11,07,41,30.60
2018,04,11,07,42,40.20
2018,04,11,07,43,40.20
2018,04,11,07,44,38.60
2018,04,11,07,45,29.00
2018,04,11,07,46,40.20
2018,04,11,07,47,40.20
2018,04,11,07,48,38.60
2018,04,11,07,49,37.00
2018,04,11,07,50,37.00
2018,04,11,07,51,37.00
2018,04,11,07,52,46.70
2018,04,11,07,53,40.20
2018,04,11,07,54,29.00
2018,04,11,07,55,37.00
2018,04,11,07,56,45.10
2018,04,11,07,57,45.10
2018,04,11,07,58,40.20
2018,04,11,07,59,32.20
2018,04,11,08,00,40.20
2018,04,11,08,01,43.50
2018,04,11,08,02,30.60
2018,04,11,08,03,43.50
2018,04,11,08,04,40.20
2018,04,11,08,05,38.60
2018,04,11,08,06,40.20
2018,04,11,08,07,43.50
2018,04,11,08,08,41.80
2018,04,11,08,09,40.20
2018,04,11,08,10,46.70
2018,04,11,08,11,57.90
2018,04,11,08,12,61.20
2018,04,11,08,13,51.50
2018,04,11,08,14,45.10
2018,04,11,08,15,37.00
2018,04,11,08,16,45.10
2018,04,11,08,17,46.70
2018,04,11,08,18,51.50
2018,04,11,08,19,46.70
2018,04,11,08,20,41.80
2018,04,11,08,21,61.20
2018,04,11,08,22,46.70
2018,04,11,08,23,40.20
2018,04,11,08,24,48.30
2018,04,11,08,25,48.30
2018,04,11,08,26,41.80
2018,04,11,08,27,35.40
2018,04,11,08,28,53.10
2018,04,11,08,29,49.90
2018,04,11,08,30,41.80
2018,04,11,08,31,38.60
2018,04,11,08,32,35.40
2018,04,11,08,33,29.00
2018,04,11,08,34,37.00
2018,04,11,08,35,27.40
2018,04,11,08,36,37.00
2018,04,11,08,37,33.80
2018,04,11,08,38,30.60
2018,04,11,08,39,43.50
2018,04,11,08,40,59.50
2018,04,11,08,41,51.50
2018,04,11,08,42,38.60
2018,04,11,08,43,59.50
2018,04,11,08,44,59.50
2018,04,11,08,45,53.10
2018,04,11,08,46,49.90
2018,04,11,08,47,38.60
2018,04,11,08,48,40.20
2018,04,11,08,49,46.70
2018,04,11,08,50,48.30
2018,04,11,08,51,46.70
2018,04,11,08,52,51.50
2018,04,11,08,53,46.70
2018,04,11,08,54,51.50
2018,04,11,08,55,45.10
2018,04,11,08,56,57.90
2018,04,11,08,57,45.10
2018,04,11,08,58,45.10
2018,04,11,08,59,51.50
2018,04,11,09,00,49.90
2018,04,11,09,01,49.90
2018,04,11,09,02,59.50
2018,04,11,09,03,40.20
2018,04,11,09,04,48.30
2018,04,11,09,05,51.50
2018,04,11,09,06,46.70
2018,04,11,09,07,56.30
2018,04,11,09,08,57.90
2018,04,11,09,09,53.10
2018,04,11,09,10,59.50
2018,04,11,09,11,48.30
2018,04,11,09,12,53.10
2018,04,11,09,13,51.50
2018,04,11,09,14,54.70
2018,04,11,09,15,45.10
2018,04,11,09,16,51.50
2018,04,11,09,17,51.50
2018,04,11,09,18,45.10
2018,04,11,09,19,46.70
2018,04,11,09,20,53.10
2018,04,11,09,21,49.90
2018,04,11,09,22,48.30
2018,04,11,09,23,51.50
2018,04,11,09,24,56.30
2018,04,11,09,25,56.30
2018,04,11,09,26,43.50
2018,04,11,09,27,48.30
2018,04,11,09,28,59.50
2018,04,11,09,29,59.50
2018,04,11,09,30,53.10
2018,04,11,09,31,54.70
2018,04,11,09,32,59.50
2018,04,11,09,33,53.10
2018,04,11,09,34,54.70
2018,04,11,09,35,59.50
2018,04,11,09,36,57.90
2018,04,11,09,37,40.20
2018,04,11,09,38,59.50
2018,04,11,09,39,53.10
2018,04,11,09,40,49.90
2018,04,11,09,41,51.50
2018,04,11,09,42,40.20
2018,04,11,09,43,45.10
2018,04,11,09,44,51.50
2018,04,11,09,45,53.10
2018,04,11,09,46,43.50
2018,04,11,09,47,43.50
2018,04,11,09,48,37.00
2018,04,11,09,49,40.20
2018,04,11,09,50,40.20
2018,04,11,09,51,51.50
2018,04,11,09,52,56.30
2018,04,11,09,53,51.50
2018,04,11,09,54,48.30
2018,04,11,09,55,40.20
2018,04,11,09,56,61.20
2018,04,11,09,57,72.40
2018,04,11,09,58,56.30
2018,04,11,09,59,62.70
2018,04,11,10,00,49.90
2018,04,11,10,01,53.10
2018,04,11,10,02,49.90
2018,04,11,10,03,53.10
2018,04,11,10,04,45.10
2018,04,11,10,05,59.50
2018,04,11,10,06,53.10
2018,04,11,10,07,45.10
2018,04,11,10,08,48.30
2018,04,11,10,09,41.80
2018,04,11,10,10,45.10
2018,04,11,10,11,56.30
2018,04,11,10,12,62.70
2018,04,11,10,13,51.50
2018,04,11,10,14,54.70
2018,04,11,10,15,54.70
2018,04,11,10,16,54.70
2018,04,11,10,17,57.90
2018,04,11,10,18,57.90
2018,04,11,10,19,40.20
2018,04,11,10,20,46.70
2018,04,11,10,21,46.70
2018,04,11,10,22,64.40
2018,04,11,10,23,48.30
2018,04,11,10,24,45.10
2018,04,11,10,25,51.50
2018,04,11,10,26,53.10
2018,04,11,10,27,49.90
2018,04,11,10,28,51.50
2018,04,11,10,29,48.30
2018,04,11,10,30,48.30
2018,04,11,10,31,46.70
2018,04,11,10,32,37.00
2018,04,11,10,33,43.50
2018,04,11,10,34,46.70
2018,04,11,10,35,45.10
2018,04,11,10,36,46.70
2018,04,11,10,37,53.10
2018,04,11,10,38,54.70
2018,04,11,10,39,41.80
2018,04,11,10,40,49.90
2018,04,11,10,41,45.10
2018,04,11,10,42,38.60
2018,04,11,10,43,45.10
2018,04,11,10,44,37.00
2018,04,11,10,45,27.40
2018,04,11,10,46,33.80
2018,04,11,10,47,33.80
2018,04,11,10,48,29.00
2018,04,11,10,49,30.60
2018,04,11,10,50,43.50
2018,04,11,10,51,40.20
2018,04,11,10,52,33.80
2018,04,11,10,53,32.20
2018,04,11,10,54,49.90
2018,04,11,10,55,30.60
2018,04,11,10,56,49.90
2018,04,11,10,57,40.20
2018,04,11,10,58,51.50
2018,04,11,10,59,35.40
2018,04,11,11,00,33.80
2018,04,11,11,01,41.80
2018,04,11,11,02,45.10
2018,04,11,11,03,46.70
2018,04,11,11,04,49.90
2018,04,11,11,05,35.40
2018,04,11,11,06,43.50
2018,04,11,11,07,41.80
2018,04,11,11,08,40.20
2018,04,11,11,09,40.20
2018,04,11,11,10,46.70
2018,04,11,11,11,46.70
2018,04,11,11,12,32.20
2018,04,11,11,13,27.40
2018,04,11,11,14,41.80
2018,04,11,11,15,41.80
2018,04,11,11,16,37.00
2018,04,11,11,17,38.60
2018,04,11,11,18,32.20
2018,04,11,11,19,32.20
2018,04,11,11,20,40.20
2018,04,11,11,21,40.20
2018,04,11,11,22,38.60
2018,04,11,11,23,48.30
2018,04,11,11,24,30.60
2018,04,11,11,25,54.70
2018,04,11,11,26,45.10
2018,04,11,11,27,33.80
2018,04,11,11,28,54.70
2018,04,11,11,29,41.80
2018,04,11,11,30,43.50
2018,04,11,11,31,41.80
2018,04,11,11,32,46.70
2018,04,11,11,33,45.10
2018,04,11,11,34,35.40
2018,04,11,11,35,41.80
2018,04,11,11,36,37.00
2018,04,11,11,37,37.00
2018,04,11,11,38,38.60
2018,04,11,11,39,37.00
2018,04,11,11,40,43.50
2018,04,11,11,41,49.90
2018,04,11,11,42,43.50
2018,04,11,11,43,46.70
2018,04,11,11,44,43.50
2018,04,11,11,45,38.60
2018,04,11,11,46,41.80
2018,04,11,11,47,41.80
2018,04,11,11,48,41.80
2018,04,11,11,49,46.70
2018,04,11,11,50,33.80
2018,04,11,11,51,43.50
2018,04,11,11,52,54.70
2018,04,11,11,53,49.90
2018,04,11,11,54,35.40
2018,04,11,11,55,40.20
2018,04,11,11,56,41.80
2018,04,11,11,57,37.00
2018,04,11,11,58,54.70
2018,04,11,11,59,45.10
2018,04,11,12,00,35.40
2018,04,11,12,01,38.60
2018,04,11,12,02,54.70
2018,04,11,12,03,45.10
2018,04,11,12,04,46.70
2018,04,11,12,05,40.20
2018,04,11,12,06,32.20
2018,04,11,12,07,37.00
2018,04,11,12,08,43.50
2018,04,11,12,09,56.30
2018,04,11,12,10,54.70
2018,04,11,12,11,41.80
2018,04,11,12,12,49.90
2018,04,11,12,13,45.10
2018,04,11,12,14,48.30
2018,04,11,12,15,45.10
2018,04,11,12,16,41.80
2018,04,11,12,17,38.60
2018,04,11,12,18,49.90
2018,04,11,12,19,40.20
2018,04,11,12,20,38.60
2018,04,11,12,21,43.50
2018,04,11,12,22,43.50
2018,04,11,12,23,46.70
2018,04,11,12,24,35.40
2018,04,11,12,25,45.10
2018,04,11,12,26,49.90
2018,04,11,12,27,48.30
2018,04,11,12,28,38.60
2018,04,11,12,29,46.70
2018,04,11,12,30,41.80
2018,04,11,12,31,46.70
2018,04,11,12,32,41.80
2018,04,11,12,33,49.90
2018,04,11,12,34,38.60
2018,04,11,12,35,35.40
2018,04,11,12,36,37.00
2018,04,11,12,37,51.50
2018,04,11,12,38,45.10
2018,04,11,12,39,43.50
2018,04,11,12,40,35.40
2018,04,11,12,41,41.80
2018,04,11,12,42,49.90
2018,04,11,12,43,40.20
2018,04,11,12,44,48.30
2018,04,11,12,45,40.20
2018,04,11,12,46,37.00
2018,04,11,12,47,43.50
2018,04,11,12,48,35.40
2018,04,11,12,49,32.20
2018,04,11,12,50,45.10
2018,04,11,12,51,38.60
2018,04,11,12,52,29.00
2018,04,11,12,53,35.40
2018,04,11,12,54,33.80
2018,04,11,12,55,46.70
2018,04,11,12,56,41.80
2018,04,11,12,57,37.00
2018,04,11,12,58,45.10
2018,04,11,12,59,40.20
2018,04,11,13,00,38.60
2018,04,11,13,01,35.40
2018,04,11,13,02,33.80
2018,04,11,13,03,48.30
2018,04,11,13,04,43.50
2018,04,11,13,05,33.80
2018,04,11,13,06,41.80
2018,04,11,13,07,38.60
2018,04,11,13,08,46.70
2018,04,11,13,09,46.70
2018,04,11,13,10,30.60
2018,04,11,13,11,45.10
2018,04,11,13,12,30.60
2018,04,11,13,13,46.70
2018,04,11,13,14,48.30
2018,04,11,13,15,32.20
2018,04,11,13,16,33.80
2018,04,11,13,17,48.30
2018,04,11,13,18,32.20
2018,04,11,13,19,33.80
2018,04,11,13,20,24.20
2018,04,11,13,21,24.20
2018,04,11,13,22,22.50
2018,04,11,13,23,25.70
2018,04,11,13,24,24.20
2018,04,11,13,25,19.30
2018,04,11,13,26,27.40
2018,04,11,13,27,40.20
2018,04,11,13,28,32.20
2018,04,11,13,29,24.20
2018,04,11,13,30,29.00
2018,04,11,13,31,35.40
2018,04,11,13,32,27.40
2018,04,11,13,33,29.00
2018,04,11,13,34,24.20
2018,04,11,13,35,29.00
2018,04,11,13,36,40.20
2018,04,11,13,37,24.20
2018,04,11,13,38,27.40
2018,04,11,13,39,24.20
2018,04,11,13,40,20.90
2018,04,11,13,41,37.00
2018,04,11,13,42,27.40
2018,04,11,13,43,17.70
2018,04,11,13,44,16.10
2018,04,11,13,45,29.00
2018,04,11,13,46,25.70
2018,04,11,13,47,20.90
2018,04,11,13,48,20.90
2018,04,11,13,49,20.90
2018,04,11,13,50,17.70
2018,04,11,13,51,19.30
2018,04,11,13,52,32.20
2018,04,11,13,53,17.70
2018,04,11,13,54,25.70
2018,04,11,13,55,16.10
2018,04,11,13,56,16.10
2018,04,11,13,57,17.70
2018,04,11,13,58,17.70
2018,04,11,13,59,16.10
2018,04,11,14,00,20.90
2018,04,11,14,01,4.80
2018,04,11,14,02,6.40
2018,04,11,14,03,6.40
2018,04,11,14,04,12.90
2018,04,11,14,05,16.10
2018,04,11,14,06,11.30
2018,04,11,14,07,29.00
2018,04,11,14,08,20.90
2018,04,11,14,09,16.10
2018,04,11,14,10,12.90
2018,04,11,14,11,12.90
2018,04,11,14,12,4.80
2018,04,11,14,13,6.40
2018,04,11,14,14,3.20
2018,04,11,14,15,4.80
2018,04,11,14,16,17.70
2018,04,11,14,18,11.30
2018,04,11,14,19,9.60
2018,04,11,14,20,4.80
2018,04,11,14,21,4.80
2018,04,11,14,22,14.50
2018,04,11,14,23,14.50
2018,04,11,14,24,20.90
2018,04,11,14,25,14.50
2018,04,11,14,26,20.90
2018,04,11,14,27,20.90
2018,04,11,14,28,27.40
2018,04,11,14,29,27.40
2018,04,11,14,30,32.20
2018,04,11,14,31,46.70
2018,04,11,14,32,46.70
2018,04,11,14,33,41.80
2018,04,11,14,34,43.50
2018,04,11,14,35,40.20
2018,04,11,14,36,35.40
2018,04,11,14,37,35.40
2018,04,11,14,38,22.50
2018,04,11,14,39,19.30
2018,04,11,14,40,29.00
2018,04,11,14,41,35.40
2018,04,11,14,42,24.20
2018,04,11,14,43,32.20
2018,04,11,14,44,35.40
2018,04,11,14,45,35.40
2018,04,11,14,46,37.00
2018,04,11,14,47,33.80
2018,04,11,14,48,37.00
2018,04,11,14,49,27.40
2018,04,11,14,50,32.20
2018,04,11,14,51,30.60
2018,04,11,14,52,24.20
2018,04,11,14,53,25.70
2018,04,11,14,54,29.00
2018,04,11,14,55,20.90
2018,04,11,14,56,24.20
2018,04,11,14,57,14.50
2018,04,11,14,58,24.20
2018,04,11,14,59,24.20
2018,04,11,15,00,24.20
2018,04,11,15,01,24.20
2018,04,11,15,02,20.90
2018,04,11,15,03,12.90
2018,04,11,15,04,16.10
2018,04,11,15,05,14.50
2018,04,11,15,06,16.10
2018,04,11,15,07,22.50
2018,04,11,15,08,19.30
2018,04,11,15,09,12.90
2018,04,11,15,10,19.30
2018,04,11,15,11,14.50
2018,04,11,15,12,14.50
2018,04,11,15,13,25.70
2018,04,11,15,14,16.10
2018,04,11,15,15,19.30
2018,04,11,15,16,29.00
2018,04,11,15,17,20.90
2018,04,11,15,18,12.90
2018,04,11,15,19,14.50
2018,04,11,15,20,12.90
2018,04,11,15,21,16.10
2018,04,11,15,22,16.10
2018,04,11,15,23,17.70
2018,04,11,15,24,12.90
2018,04,11,15,25,16.10
2018,04,11,15,26,6.40
2018,04,11,15,27,3.20
2018,04,11,15,28,8.10
2018,04,11,15,29,16.10
2018,04,11,15,30,16.10
2018,04,11,15,31,11.30
2018,04,11,15,32,12.90
2018,04,11,15,33,11.30
2018,04,11,15,34,8.10
2018,04,11,15,35,4.80
2018,04,11,15,36,16.10
2018,04,11,15,37,16.10
2018,04,11,15,38,12.90
2018,04,11,15,39,6.40
2018,04,11,15,40,14.50
2018,04,11,15,41,12.90
2018,04,11,15,42,11.30
2018,04,11,15,43,12.90
2018,04,11,15,44,12.90
2018,04,11,15,45,14.50
2018,04,11,15,46,14.50
2018,04,11,15,47,11.30
2018,04,11,15,48,17.70
2018,04,11,15,49,8.10
2018,04,11,15,50,9.60
2018,04,11,15,51,14.50
2018,04,11,15,52,11.30
2018,04,11,15,53,4.80
2018,04,11,15,54,9.60
2018,04,11,15,55,11.30
2018,04,11,15,56,14.50
2018,04,11,15,57,6.40
2018,04,11,15,58,9.60
2018,04,11,15,59,4.80
2018,04,11,16,00,3.20
2018,04,11,16,01,3.20
2018,04,11,16,02,1.60
2018,04,11,16,03,12.90
2018,04,11,16,04,12.90
2018,04,11,16,05,3.20
2018,04,11,16,30,12.90
2018,04,11,16,31,11.30
2018,04,11,16,32,11.30
2018,04,11,16,33,14.50
2018,04,11,17,11,12.90
2018,04,11,17,18,6.40
2018,04,11,17,19,12.90
2018,04,11,17,41,14.50
2018,04,11,17,42,16.10
2018,04,11,17,43,16.10
2018,04,11,17,44,1.60
2018,04,11,17,46,1.60
2018,04,11,17,50,1.60
2018,04,11,17,55,3.20
2018,04,11,18,47,1.60
2018,04,11,18,49,14.50
2018,04,11,18,50,19.30
2018,04,11,18,51,19.30
2018,04,11,18,52,16.10
2018,04,11,18,53,12.90
2018,04,11,18,54,14.50
2018,04,11,18,55,14.50
2018,04,11,18,56,6.40
2018,04,11,18,59,1.60
2018,04,11,19,01,12.90
2018,04,11,19,02,17.70
2018,04,11,19,03,6.40
2018,04,11,19,04,17.70
2018,04,11,19,05,9.60
2018,04,11,19,10,17.70
2018,04,11,19,12,14.50
2018,04,11,19,20,1.60
2018,04,11,19,21,14.50
2018,04,11,19,22,1.60
2018,04,11,19,23,11.30
2018,04,11,19,24,3.20
2018,04,11,19,59,8.10
2018,04,11,20,49,1.60
